This is the latest recevied weather packets stored in our database for station/object W1HVD. If no packets are shown the sender has not sent any weather packets the latest 10 day(s).
| Time | Temp. | Humidity | Pressure | Rain* | Wind** | Luminosity | Snow |
|---|---|---|---|---|---|---|---|
| 1778278227 | 15° C | 43% | 1009.7 hPa | 0 mm | - | 111 W/m² | - |
| 1778277924 | 15° C | 44% | 1009.7 hPa | 0 mm | - | 52 W/m² | - |
| 1778277620 | 15° C | 42% | 1009.9 hPa | 0 mm | - | 133 W/m² | - |
| 1778277317 | 15° C | 44% | 1009.8 hPa | 0 mm | - | 142 W/m² | - |
| 1778277014 | 15° C | 43% | 1009.7 hPa | 0 mm | - | 155 W/m² | - |
| 1778276712 | 15° C | 42% | 1009.8 hPa | 0 mm | - | 169 W/m² | - |
| 1778276407 | 15.56° C | 42% | 1009.7 hPa | 0 mm | - | 186 W/m² | - |
| 1778276106 | 15.56° C | 42% | 1009.6 hPa | 0 mm | - | 196 W/m² | - |
| 1778275800 | 15.56° C | 43% | 1009.7 hPa | 0 mm | - | 210 W/m² | - |
| 1778275497 | 15.56° C | 42% | 1009.7 hPa | 0 mm | - | 224 W/m² | - |
| 1778275193 | 15.56° C | 42% | 1009.9 hPa | 0 mm | - | 241 W/m² | - |
| 1778274889 | 15.56° C | 41% | 1009.8 hPa | 0 mm | - | 249 W/m² | - |
| 1778274586 | 15.56° C | 43% | 1009.5 hPa | 0 mm | - | 267 W/m² | - |
| 1778274283 | 15.56° C | 44% | 1009.6 hPa | 0 mm | - | 290 W/m² | - |
| 1778273979 | 16.11° C | 41% | 1009.7 hPa | 0 mm | - | 355 W/m² | - |
| 1778273676 | 14.44° C | 43% | 1009.5 hPa | 0 mm | - | 416 W/m² | - |
| 1778273372 | 14.44° C | 43% | 1009.6 hPa | 0 mm | - | 130 W/m² | - |
| 1778273070 | 15° C | 43% | 1009.5 hPa | 0 mm | - | 97 W/m² | - |
| 1778272765 | 15° C | 41% | 1009.4 hPa | 0 mm | - | 133 W/m² | - |
| 1778272462 | 14.44° C | 42% | 1009.4 hPa | 0 mm | - | 231 W/m² | - |
| 1778272158 | 15° C | 43% | 1009.1 hPa | 0 mm | - | 119 W/m² | - |
| 1778271855 | 15° C | 40% | 1009.2 hPa | 0 mm | - | 152 W/m² | - |
| 1778271552 | 15° C | 42% | 1009 hPa | 0 mm | - | 141 W/m² | - |
| 1778271249 | 15° C | 40% | 1009 hPa | 0 mm | - | 132 W/m² | - |
| 1778270945 | 15° C | 44% | 1008.9 hPa | 0 mm | - | 189 W/m² | - |
* Rain latest hour (hover to see other rain measurements)
** Current wind speed in m/s (hover to see current wind gust speed)